LIPX Weather Reports


time (UTC)temp
F
wind
direction
speed
knots
gust
knots
rain 1hr
in
rain 24hr
in
rain mn
in
humidity
%
barometer
mb
20260507190005 68 250 4.3 0.0 0.00 0.00 0.00 49 1012.0
20260507184504 70 260 4.3 0.0 0.00 0.00 0.00 46 1012.0
20260507183004 70 260 4.3 0.0 0.00 0.00 0.00 46 1012.0
20260507174503 72 250 4.3 0.0 0.00 0.00 0.00 46 1012.0
20260507171504 72 230 7.8 0.0 0.00 0.00 0.00 40 1012.0
20260507164504 72 220 7.0 0.0 0.00 0.00 0.00 43 1012.0
20260507163003 72 220 7.0 0.0 0.00 0.00 0.00 43 1012.0
20260507161503 73 250 7.0 0.0 0.00 0.00 0.00 40 1012.0
20260507160005 73 250 7.0 0.0 0.00 0.00 0.00 40 1012.0
20260507154504 72 260 5.2 0.0 0.00 0.00 0.00 46 1012.0
20260507153004 72 260 5.2 0.0 0.00 0.00 0.00 46 1012.0
20260507151505 73 240 0.9 0.0 0.00 0.00 0.00 43 1012.0
20260507143005 72 250 6.1 0.0 0.00 0.00 0.00 43 1012.0
20260507140005 72 270 0.9 0.0 0.00 0.00 0.00 43 1012.0
20260507133004 72 280 7.8 0.0 0.00 0.00 0.00 49 1012.0
20260507131504 70 290 7.8 0.0 0.00 0.00 0.00 49 1012.0
20260507124503 70 240 0.9 0.0 0.00 0.00 0.00 49 1012.0
20260507121504 72 230 7.0 0.0 0.00 0.00 0.00 49 1013.0
20260507120006 72 230 7.0 0.0 0.00 0.00 0.00 49 1013.0
20260507114504 70 0 4.3 0.0 0.00 0.00 0.00 52 1013.0
20260507113003 70 0 4.3 0.0 0.00 0.00 0.00 52 1013.0
20260507103005 68 220 4.3 0.0 0.00 0.00 0.00 60 1013.0
20260507101504 66 230 4.3 0.0 0.00 0.00 0.00 59 1013.0
20260507100005 66 230 4.3 0.0 0.00 0.00 0.00 59 1013.0
20260507093004 64 0 1.7 0.0 0.00 0.00 0.00 63 1013.0
20260507090005 63 230 2.6 0.0 0.00 0.00 0.00 72 1013.0
20260507084504 63 0 1.7 0.0 0.00 0.00 0.00 72 1013.0
20260507081504 61 150 2.6 0.0 0.00 0.00 0.00 72 1013.0
20260507074503 63 0 1.7 0.0 0.00 0.00 0.00 72 1012.0
20260507071504 59 0 1.7 0.0 0.00 0.00 0.00 76 1012.0
20260507070009 59 0 1.7 0.0 0.00 0.00 0.00 76 1012.0
20260507064504 57 50 2.6 0.0 0.00 0.00 0.00 87 1012.0
20260507063005 57 50 2.6 0.0 0.00 0.00 0.00 87 1012.0
20260507060004 54 0 1.7 0.0 0.00 0.00 0.00 100 1012.0
20260507051505 48 340 2.6 0.0 0.00 0.00 0.00 100 1011.0
20260507044504 48 350 1.7 0.0 0.00 0.00 0.00 100 1011.0
20260507041504 50 10 4.3 0.0 0.00 0.00 0.00 100 1011.0
20260507034504 50 360 1.7 0.0 0.00 0.00 0.00 100 1011.0
20260507033004 50 360 1.7 0.0 0.00 0.00 0.00 100 1011.0
20260507031504 50 0 1.7 0.0 0.00 0.00 0.00 100 1011.0
20260507030004 50 0 1.7 0.0 0.00 0.00 0.00 100 1011.0
20260507024504 52 350 4.3 0.0 0.00 0.00 0.00 100 1011.0
20260507023004 52 350 4.3 0.0 0.00 0.00 0.00 100 1011.0
20260507020004 52 350 2.6 0.0 0.00 0.00 0.00 100 1011.0
20260507013005 52 350 2.6 0.0 0.00 0.00 0.00 100 1011.0
20260507011504 52 350 2.6 0.0 0.00 0.00 0.00 100 1011.0
20260507010004 52 350 2.6 0.0 0.00 0.00 0.00 100 1011.0
20260507000004 52 0 1.7 0.0 0.00 0.00 0.00 100 1011.0
20260506234504 55 270 2.6 0.0 0.00 0.00 0.00 100 1011.0
20260506231504 55 220 2.6 0.0 0.00 0.00 0.00 100 1011.0
20260506223004 55 250 2.6 0.0 0.00 0.00 0.00 100 1011.0
20260506221505 57 0 1.7 0.0 0.00 0.00 0.00 100 1011.0
20260506220005 57 220 1.7 0.0 0.00 0.00 0.00 93 1011.0
20260506214504 57 220 1.7 0.0 0.00 0.00 0.00 93 1011.0
20260506213004 57 220 1.7 0.0 0.00 0.00 0.00 93 1011.0
20260506211504 59 140 2.6 0.0 0.00 0.00 0.00 93 1010.0
20260506204504 59 100 4.3 0.0 0.00 0.00 0.00 93 1010.0
20260506203004 59 100 4.3 0.0 0.00 0.00 0.00 93 1010.0
20260506201504 61 110 4.3 0.0 0.00 0.00 0.00 87 1009.0
20260506200005 61 110 4.3 0.0 0.00 0.00 0.00 87 1009.0
20260506193004 63 100 6.1 0.0 0.00 0.00 0.00 82 1009.0